| time (UTC) | temp F | wind direction | speed MPH | gust MPH | rain 1hr in | rain 24hr in | rain mn in | humidity % | barometer mb |
| 20260506123051 | 73 | 125 | 2.0 | 3.0 | 0.00 | 0.00 | 0.00 | 99 | 1010.3 |
| 20260506122104 | 73 | 114 | 1.0 | 2.0 | 0.00 | 0.00 | 0.00 | 99 | 1010.2 |
| 20260506121029 | 73 | 94 | 0.0 | 2.0 | 0.00 | 0.00 | 0.00 | 99 | 1010.2 |
| 20260506120049 | 73 | 113 | 2.0 | 3.0 | 0.00 | 0.00 | 0.00 | 99 | 1010.2 |
| 20260506115024 | 73 | 129 | 2.0 | 3.0 | 0.00 | 0.00 | 0.00 | 99 | 1010.2 |
| 20260506114139 | 73 | 129 | 2.0 | 3.0 | 0.00 | 0.00 | 0.00 | 99 | 1010.1 |
| 20260506113025 | 73 | 136 | 2.0 | 3.0 | 0.00 | 0.00 | 0.00 | 99 | 1010.1 |
| 20260506112019 | 73 | 135 | 0.0 | 1.0 | 0.00 | 0.00 | 0.00 | 99 | 1010.3 |
| 20260506111058 | 73 | 134 | 2.0 | 2.0 | 0.00 | 0.00 | 0.00 | 99 | 1010.4 |
| 20260506110038 | 73 | 180 | 1.0 | 2.0 | 0.00 | 0.00 | 0.00 | 99 | 1010.3 |
| 20260506105016 | 73 | 150 | 1.0 | 2.0 | 0.00 | 0.00 | 0.00 | 99 | 1010.2 |
| 20260506104024 | 73 | 142 | 1.0 | 2.0 | 0.00 | 0.00 | 0.00 | 99 | 1010.1 |
| 20260506103020 | 74 | 0.0 | 0.0 | 0.00 | 0.00 | 0.00 | 99 | 1010.1 | |
| 20260506102019 | 74 | 144 | 2.0 | 3.0 | 0.00 | 0.00 | 0.00 | 97 | 1009.9 |
| 20260506101114 | 74 | 140 | 2.0 | 4.0 | 0.00 | 0.00 | 0.00 | 92 | 1009.8 |
| 20260506100027 | 74 | 160 | 2.0 | 3.0 | 0.00 | 0.00 | 0.00 | 89 | 1009.7 |
| 20260506095141 | 75 | 166 | 1.0 | 2.0 | 0.00 | 0.00 | 0.00 | 89 | 1009.7 |
| 20260506094033 | 75 | 181 | 1.0 | 2.0 | 0.00 | 0.00 | 0.00 | 89 | 1009.7 |
| 20260506093033 | 75 | 190 | 3.0 | 5.0 | 0.00 | 0.00 | 0.00 | 89 | 1009.4 |
| 20260506092111 | 75 | 158 | 2.0 | 3.0 | 0.00 | 0.00 | 0.00 | 89 | 1009.2 |
| 20260506091111 | 75 | 155 | 2.0 | 3.0 | 0.00 | 0.00 | 0.00 | 88 | 1009.2 |
| 20260506090044 | 75 | 152 | 2.0 | 4.0 | 0.00 | 0.00 | 0.00 | 88 | 1009.0 |
| 20260506085100 | 75 | 284 | 2.0 | 3.0 | 0.00 | 0.00 | 0.00 | 87 | 1009.0 |
| 20260506084121 | 75 | 171 | 2.0 | 4.0 | 0.00 | 0.00 | 0.00 | 87 | 1009.0 |
| 20260506083134 | 75 | 117 | 3.0 | 5.0 | 0.00 | 0.00 | 0.00 | 87 | 1008.8 |
| 20260506082047 | 75 | 166 | 4.0 | 7.0 | 0.00 | 0.00 | 0.00 | 86 | 1009.0 |
| 20260506081021 | 75 | 170 | 3.0 | 6.0 | 0.00 | 0.00 | 0.00 | 86 | 1009.2 |
| 20260506073019 | 75 | 148 | 5.0 | 9.0 | 0.00 | 0.00 | 0.00 | 85 | 1009.3 |
| 20260506072104 | 75 | 149 | 5.0 | 8.0 | 0.00 | 0.00 | 0.00 | 85 | 1009.3 |
| 20260506071023 | 75 | 152 | 5.0 | 7.0 | 0.00 | 0.00 | 0.00 | 85 | 1009.3 |
| 20260506062034 | 75 | 157 | 5.0 | 7.0 | 0.00 | 0.00 | 0.00 | 86 | 1009.0 |
| 20260506061048 | 75 | 155 | 6.0 | 7.0 | 0.00 | 0.00 | 0.00 | 86 | 1009.0 |
| 20260506051039 | 75 | 150 | 7.0 | 10.0 | 0.00 | 0.00 | 0.00 | 84 | 1009.2 |
| 20260506045053 | 76 | 177 | 4.0 | 8.0 | 0.00 | 0.00 | 0.00 | 82 | 1009.3 |
| 20260506044048 | 76 | 136 | 4.0 | 6.0 | 0.00 | 0.00 | 0.00 | 82 | 1009.4 |
| 20260506042019 | 76 | 124 | 3.0 | 6.0 | 0.00 | 0.00 | 0.00 | 80 | 1009.2 |
| 20260506041054 | 76 | 147 | 3.0 | 5.0 | 0.00 | 0.00 | 0.00 | 79 | 1009.2 |
| 20260506040048 | 76 | 173 | 1.0 | 3.0 | 0.00 | 0.00 | 0.00 | 78 | 1009.1 |
| 20260506035104 | 77 | 96 | 3.0 | 4.0 | 0.00 | 0.00 | 0.00 | 77 | 1008.9 |
| 20260506034019 | 77 | 143 | 4.0 | 5.0 | 0.00 | 0.00 | 0.00 | 76 | 1008.8 |
| 20260506033021 | 77 | 144 | 5.0 | 9.0 | 0.00 | 0.00 | 0.00 | 75 | 1008.5 |
| 20260506032027 | 77 | 156 | 6.0 | 9.0 | 0.00 | 0.00 | 0.00 | 74 | 1008.5 |
| 20260506031023 | 78 | 166 | 6.0 | 11.0 | 0.00 | 0.00 | 0.00 | 73 | 1008.3 |
| 20260506030019 | 78 | 145 | 4.0 | 7.0 | 0.00 | 0.00 | 0.00 | 73 | 1008.2 |
| 20260506025026 | 78 | 155 | 5.0 | 7.0 | 0.00 | 0.00 | 0.00 | 73 | 1008.1 |
| 20260506024027 | 78 | 147 | 6.0 | 9.0 | 0.00 | 0.00 | 0.00 | 72 | 1008.0 |
| 20260506023024 | 78 | 132 | 5.0 | 6.0 | 0.00 | 0.00 | 0.00 | 72 | 1007.8 |
| 20260506022018 | 78 | 131 | 4.0 | 6.0 | 0.00 | 0.00 | 0.00 | 71 | 1007.6 |
| 20260506021149 | 78 | 136 | 5.0 | 7.0 | 0.00 | 0.00 | 0.00 | 70 | 1007.4 |
| 20260506020047 | 79 | 128 | 4.0 | 5.0 | 0.00 | 0.00 | 0.00 | 70 | 1007.3 |
| 20260506015029 | 79 | 149 | 4.0 | 5.0 | 0.00 | 0.00 | 0.00 | 69 | 1007.1 |
| 20260506014044 | 79 | 137 | 4.0 | 6.0 | 0.00 | 0.00 | 0.00 | 68 | 1007.0 |
| 20260506013041 | 80 | 142 | 5.0 | 6.0 | 0.00 | 0.00 | 0.00 | 68 | 1006.7 |
| 20260506012103 | 80 | 141 | 5.0 | 7.0 | 0.00 | 0.00 | 0.00 | 67 | 1006.8 |
| 20260506011108 | 81 | 126 | 5.0 | 6.0 | 0.00 | 0.00 | 0.00 | 66 | 1006.8 |
| 20260506010127 | 82 | 131 | 5.0 | 6.0 | 0.00 | 0.00 | 0.00 | 65 | 1006.8 |
| 20260506005018 | 82 | 129 | 5.0 | 8.0 | 0.00 | 0.00 | 0.00 | 64 | 1006.8 |
| 20260506003128 | 83 | 160 | 4.0 | 5.0 | 0.00 | 0.00 | 0.00 | 62 | 1006.9 |
| 20260506002043 | 83 | 168 | 4.0 | 6.0 | 0.00 | 0.00 | 0.00 | 62 | 1006.9 |
| 20260506001110 | 84 | 154 | 4.0 | 7.0 | 0.00 | 0.00 | 0.00 | 61 | 1006.8 |
| 20260506000111 | 84 | 174 | 5.0 | 7.0 | 0.00 | 0.00 | 0.00 | 60 | 1006.8 |
| 20260505235027 | 84 | 173 | 4.0 | 6.0 | 0.00 | 0.00 | 0.00 | 61 | 1006.8 |
| 20260505234024 | 84 | 167 | 5.0 | 8.0 | 0.00 | 0.00 | 0.00 | 60 | 1006.7 |
| 20260505233019 | 85 | 169 | 6.0 | 9.0 | 0.00 | 0.00 | 0.00 | 59 | 1006.7 |
| 20260505232106 | 85 | 165 | 5.0 | 7.0 | 0.00 | 0.00 | 0.00 | 59 | 1006.6 |
| 20260505231046 | 86 | 172 | 5.0 | 7.0 | 0.00 | 0.00 | 0.00 | 58 | 1006.5 |
| 20260505230129 | 87 | 160 | 5.0 | 7.0 | 0.00 | 0.00 | 0.00 | 57 | 1006.5 |
| 20260505225043 | 87 | 158 | 4.0 | 8.0 | 0.00 | 0.00 | 0.00 | 58 | 1006.6 |
| 20260505224120 | 87 | 156 | 5.0 | 8.0 | 0.00 | 0.00 | 0.00 | 57 | 1006.7 |
| 20260505223047 | 87 | 157 | 4.0 | 6.0 | 0.00 | 0.00 | 0.00 | 57 | 1006.6 |
| 20260505222050 | 88 | 177 | 5.0 | 6.0 | 0.00 | 0.00 | 0.00 | 55 | 1006.6 |
| 20260505221024 | 88 | 169 | 3.0 | 5.0 | 0.00 | 0.00 | 0.00 | 55 | 1006.5 |
| 20260505220020 | 88 | 161 | 5.0 | 7.0 | 0.00 | 0.00 | 0.00 | 55 | 1006.6 |
| 20260505215053 | 89 | 143 | 6.0 | 9.0 | 0.00 | 0.00 | 0.00 | 54 | 1006.7 |
| 20260505214149 | 89 | 155 | 8.0 | 9.0 | 0.00 | 0.00 | 0.00 | 53 | 1006.7 |
| 20260505213024 | 89 | 173 | 7.0 | 9.0 | 0.00 | 0.00 | 0.00 | 54 | 1007.0 |
| 20260505212025 | 90 | 190 | 5.0 | 8.0 | 0.00 | 0.00 | 0.00 | 53 | 1006.9 |
| 20260505211102 | 90 | 154 | 6.0 | 10.0 | 0.00 | 0.00 | 0.00 | 53 | 1007.0 |
| 20260505210022 | 91 | 185 | 6.0 | 9.0 | 0.00 | 0.00 | 0.00 | 53 | 1007.1 |
| 20260505205027 | 90 | 144 | 6.0 | 11.0 | 0.00 | 0.00 | 0.00 | 54 | 1007.2 |
| 20260505204022 | 90 | 160 | 6.0 | 9.0 | 0.00 | 0.00 | 0.00 | 54 | 1007.3 |
| 20260505203139 | 90 | 171 | 6.0 | 10.0 | 0.00 | 0.00 | 0.00 | 54 | 1007.4 |
| 20260505202029 | 89 | 135 | 8.0 | 11.0 | 0.00 | 0.00 | 0.00 | 54 | 1007.6 |
| 20260505201045 | 89 | 179 | 7.0 | 11.0 | 0.00 | 0.00 | 0.00 | 54 | 1007.9 |
| 20260505200153 | 90 | 159 | 6.0 | 9.0 | 0.00 | 0.00 | 0.00 | 53 | 1008.0 |
| 20260505195028 | 90 | 158 | 6.0 | 9.0 | 0.00 | 0.00 | 0.00 | 54 | 1008.1 |
| 20260505194049 | 90 | 173 | 5.0 | 8.0 | 0.00 | 0.00 | 0.00 | 53 | 1008.1 |
| 20260505193024 | 90 | 214 | 4.0 | 7.0 | 0.00 | 0.00 | 0.00 | 53 | 1008.3 |
| 20260505192022 | 91 | 173 | 5.0 | 7.0 | 0.00 | 0.00 | 0.00 | 52 | 1008.5 |
| 20260505191027 | 90 | 224 | 5.0 | 7.0 | 0.00 | 0.00 | 0.00 | 53 | 1008.5 |
| 20260505190023 | 90 | 189 | 4.0 | 6.0 | 0.00 | 0.00 | 0.00 | 53 | 1008.6 |
| 20260505185020 | 91 | 194 | 4.0 | 6.0 | 0.00 | 0.00 | 0.00 | 52 | 1008.8 |
| 20260505184026 | 89 | 161 | 6.0 | 9.0 | 0.00 | 0.00 | 0.00 | 54 | 1009.0 |
| 20260505183022 | 92 | 214 | 3.0 | 6.0 | 0.00 | 0.00 | 0.00 | 53 | 1009.0 |
| 20260505182017 | 89 | 198 | 4.0 | 10.0 | 0.00 | 0.00 | 0.00 | 55 | 1009.4 |
| 20260505181030 | 89 | 186 | 4.0 | 7.0 | 0.00 | 0.00 | 0.00 | 55 | 1009.5 |
| 20260505180050 | 88 | 191 | 4.0 | 7.0 | 0.00 | 0.00 | 0.00 | 56 | 1009.6 |
| 20260505175025 | 87 | 184 | 5.0 | 8.0 | 0.00 | 0.00 | 0.00 | 57 | 1009.6 |
| 20260505174022 | 85 | 205 | 3.0 | 5.0 | 0.00 | 0.00 | 0.00 | 60 | 1009.7 |
| 20260505173018 | 85 | 231 | 4.0 | 6.0 | 0.00 | 0.00 | 0.00 | 59 | 1009.7 |
| 20260505172030 | 85 | 249 | 4.0 | 8.0 | 0.00 | 0.00 | 0.00 | 60 | 1009.9 |
| 20260505171149 | 84 | 220 | 4.0 | 6.0 | 0.00 | 0.00 | 0.00 | 63 | 1009.9 |
| 20260505170042 | 81 | 219 | 4.0 | 7.0 | 0.00 | 0.00 | 0.00 | 66 | 1010.0 |
| 20260505165039 | 79 | 174 | 6.0 | 10.0 | 0.00 | 0.00 | 0.00 | 68 | 1010.0 |
| 20260505164039 | 79 | 195 | 5.0 | 8.0 | 0.00 | 0.00 | 0.00 | 69 | 1010.0 |
| 20260505163051 | 78 | 182 | 4.0 | 6.0 | 0.00 | 0.00 | 0.00 | 69 | 1010.1 |
| 20260505162022 | 78 | 178 | 3.0 | 5.0 | 0.00 | 0.00 | 0.00 | 70 | 1009.8 |
| 20260505161044 | 78 | 180 | 5.0 | 7.0 | 0.00 | 0.00 | 0.00 | 72 | 1009.9 |
| 20260505153027 | 73 | 203 | 3.0 | 5.0 | 0.00 | 0.00 | 0.00 | 79 | 1010.2 |
| 20260505152021 | 73 | 187 | 3.0 | 6.0 | 0.00 | 0.00 | 0.00 | 80 | 1010.0 |
| 20260505151021 | 73 | 183 | 4.0 | 7.0 | 0.00 | 0.00 | 0.00 | 80 | 1009.9 |
| 20260505124028 | 70 | 194 | 3.0 | 6.0 | 0.00 | 0.00 | 0.00 | 82 | 1008.7 |